KE7WB Weather Reports


Display with metric or nautical units.
time (UTC)temp
F
wind
direction
speed
MPH
gust
MPH
rain 1hr
in
rain 24hr
in
rain mn
in
humidity
%
barometer
mb
20260503203503 79 313 3.0 9.0 0.00 0.00 0.00 35 1011.4
20260503203003 78 315 3.0 9.0 0.00 0.00 0.00 36 1011.4
20260503202503 78 330 3.0 8.0 0.00 0.00 0.00 37 1011.7
20260503202003 78 358 3.0 8.0 0.00 0.00 0.00 37 1011.4
20260503201503 78 4 3.0 10.0 0.00 0.00 0.00 37 1011.7
20260503201003 77 27 4.0 11.0 0.00 0.00 0.00 38 1011.7
20260503200503 77 61 2.0 11.0 0.00 0.00 0.00 38 1011.4
20260503200218 78 53 2.0 8.0 0.00 0.00 0.00 38 1011.4
20260503195503 77 75 3.0 10.0 0.00 0.00 0.00 40 1011.7
20260503195003 76 50 3.0 10.0 0.00 0.00 0.00 41 1011.7
20260503194503 76 346 3.0 9.0 0.00 0.00 0.00 41 1012.1
20260503194218 77 347 2.0 6.0 0.00 0.00 0.00 40 1012.1
20260503193503 76 333 3.0 9.0 0.00 0.00 0.00 42 1012.1
20260503193003 75 300 3.0 10.0 0.00 0.00 0.00 43 1012.1
20260503192503 74 302 4.0 10.0 0.00 0.00 0.00 43 1012.4
20260503192003 74 316 3.0 7.0 0.00 0.00 0.00 44 1012.1
20260503191503 74 329 3.0 9.0 0.00 0.00 0.00 43 1012.4
20260503191003 73 320 3.0 9.0 0.00 0.00 0.00 44 1012.4
20260503190503 74 310 3.0 9.0 0.00 0.00 0.00 43 1012.4
20260503190003 74 313 3.0 7.0 0.00 0.00 0.00 44 1012.4
20260503185716 74 307 2.0 6.0 0.00 0.00 0.00 43 1012.4
20260503185003 74 355 3.0 9.0 0.00 0.00 0.00 43 1012.4
20260503184503 74 360 3.0 9.0 0.00 0.00 0.00 43 1012.4
20260503184003 73 338 3.0 8.0 0.00 0.00 0.00 45 1012.7
20260503183503 73 352 3.0 8.0 0.00 0.00 0.00 44 1012.7
20260503183003 73 328 2.0 6.0 0.00 0.00 0.00 45 1012.7
20260503182503 72 305 3.0 7.0 0.00 0.00 0.00 45 1012.7
20260503182003 72 336 3.0 8.0 0.00 0.00 0.00 46 1012.7
20260503181504 72 312 4.0 9.0 0.00 0.00 0.00 46 1012.7
20260503181003 71 288 3.0 9.0 0.00 0.00 0.00 46 1013.1
20260503180503 72 330 3.0 8.0 0.00 0.00 0.00 46 1013.1
20260503180003 72 340 3.0 9.0 0.00 0.00 0.00 46 1012.7
20260503175503 72 352 3.0 9.0 0.00 0.00 0.00 45 1012.7
20260503175003 72 80 3.0 6.0 0.00 0.00 0.00 46 1013.1
20260503174503 71 349 3.0 7.0 0.00 0.00 0.00 47 1013.1
20260503174003 71 324 3.0 11.0 0.00 0.00 0.00 48 1013.1
20260503173503 71 317 3.0 11.0 0.00 0.00 0.00 50 1013.1
20260503173217 71 309 3.0 6.0 0.00 0.00 0.00 48 1012.7
20260503172503 70 318 3.0 7.0 0.00 0.00 0.00 48 1013.1
20260503172003 71 6 2.0 7.0 0.00 0.00 0.00 48 1013.1
20260503171503 71 37 2.0 5.0 0.00 0.00 0.00 48 1013.4
20260503171003 70 20 2.0 4.0 0.00 0.00 0.00 52 1013.4
20260503170503 69 315 2.0 6.0 0.00 0.00 0.00 53 1013.4
20260503151003 60 82 4.0 5.0 0.00 0.00 0.00 72 1013.4
20260503150503 59 85 4.0 5.0 0.00 0.00 0.00 72 1013.8
20260503131217 50 104 2.0 4.0 0.00 0.00 0.00 89 1013.4
20260503130503 50 74 2.0 4.0 0.00 0.00 0.00 89 1013.4
20260503110503 52 100 2.0 3.0 0.00 0.00 0.00 81 1013.8
20260503100218 53 70 2.0 3.0 0.00 0.00 0.00 78 1013.8
20260503090503 54 72 2.0 2.0 0.00 0.00 0.00 77 1013.8
20260503081503 55 83 1.0 2.0 0.00 0.00 0.00 72 1013.8
20260503081003 55 83 1.0 2.0 0.00 0.00 0.00 72 1013.8
20260503080503 55 82 1.0 2.0 0.00 0.00 0.00 72 1013.8
20260503072503 55 91 1.0 2.0 0.00 0.00 0.00 73 1013.8
20260503072003 55 90 2.0 4.0 0.00 0.00 0.00 72 1013.8
20260503071503 55 90 2.0 4.0 0.00 0.00 0.00 72 1013.8
20260503071003 55 89 2.0 4.0 0.00 0.00 0.00 73 1013.8
20260503070503 56 86 2.0 2.0 0.00 0.00 0.00 71 1013.4
20260503054503 59 86 2.0 3.0 0.00 0.00 0.00 63 1013.4
20260503054003 60 84 2.0 3.0 0.00 0.00 0.00 61 1013.8
20260503053717 60 82 2.0 3.0 0.00 0.00 0.00 59 1013.4
20260503053003 60 67 0.0 2.0 0.00 0.00 0.00 58 1013.4
20260503052717 60 66 0.0 2.0 0.00 0.00 0.00 58 1013.4
20260503052003 60 71 1.0 2.0 0.00 0.00 0.00 59 1013.8
20260503051503 61 73 2.0 2.0 0.00 0.00 0.00 58 1013.8
20260503051003 61 75 1.0 2.0 0.00 0.00 0.00 57 1013.8
20260503050717 61 78 1.0 2.0 0.00 0.00 0.00 56 1013.4
20260503050003 62 83 1.0 2.0 0.00 0.00 0.00 56 1013.4
20260503045503 62 86 1.0 2.0 0.00 0.00 0.00 56 1013.8
20260503045218 62 85 1.0 2.0 0.00 0.00 0.00 55 1013.4
20260503044503 63 75 1.0 2.0 0.00 0.00 0.00 54 1013.4
20260503044003 63 76 1.0 2.0 0.00 0.00 0.00 53 1013.4
20260503043717 63 73 0.0 2.0 0.00 0.00 0.00 53 1013.4
20260503043003 63 83 0.0 2.0 0.00 0.00 0.00 54 1013.1
20260503042503 64 72 0.0 2.0 0.00 0.00 0.00 53 1013.1
20260503042003 64 79 1.0 2.0 0.00 0.00 0.00 52 1013.1
20260503041717 64 86 1.0 2.0 0.00 0.00 0.00 51 1013.1
20260503041003 65 96 1.0 2.0 0.00 0.00 0.00 50 1013.1
20260503040503 66 83 1.0 2.0 0.00 0.00 0.00 47 1012.7
20260503040218 66 80 1.0 2.0 0.00 0.00 0.00 48 1013.1
20260503035503 67 82 2.0 3.0 0.00 0.00 0.00 46 1012.7
20260503035003 67 61 2.0 4.0 0.00 0.00 0.00 45 1012.4
20260503034503 67 61 2.0 4.0 0.00 0.00 0.00 45 1012.7
20260503034003 67 52 2.0 4.0 0.00 0.00 0.00 45 1012.7
20260503033503 68 41 2.0 4.0 0.00 0.00 0.00 45 1012.4
20260503033003 68 64 2.0 3.0 0.00 0.00 0.00 44 1012.4
20260503032716 68 73 2.0 4.0 0.00 0.00 0.00 44 1012.4
20260503032003 68 53 2.0 4.0 0.00 0.00 0.00 44 1012.4
20260503031503 68 28 2.0 5.0 0.00 0.00 0.00 43 1012.1
20260503031003 69 33 2.0 5.0 0.00 0.00 0.00 43 1012.4
20260503030503 69 24 2.0 10.0 0.00 0.00 0.00 43 1012.1
20260503030217 69 25 2.0 10.0 0.00 0.00 0.00 43 1012.1
20260503025503 70 37 1.0 4.0 0.00 0.00 0.00 43 1012.1
20260503025003 70 48 2.0 4.0 0.00 0.00 0.00 43 1012.4
20260503024503 70 50 2.0 4.0 0.00 0.00 0.00 43 1012.1
20260503024003 70 27 2.0 5.0 0.00 0.00 0.00 43 1012.1
20260503023503 70 357 3.0 10.0 0.00 0.00 0.00 43 1012.1
20260503023003 71 6 4.0 10.0 0.00 0.00 0.00 42 1012.1
20260503022503 71 11 3.0 9.0 0.00 0.00 0.00 43 1012.1
20260503022003 71 8 3.0 9.0 0.00 0.00 0.00 43 1012.1
20260503021503 71 45 3.0 8.0 0.00 0.00 0.00 44 1012.1
20260503021003 72 75 2.0 5.0 0.00 0.00 0.00 44 1012.1
20260503020503 73 33 2.0 5.0 0.00 0.00 0.00 45 1012.1
20260503020003 73 9 2.0 5.0 0.00 0.00 0.00 44 1012.1
20260503015718 73 28 2.0 4.0 0.00 0.00 0.00 46 1012.1
20260503015003 73 335 3.0 11.0 0.00 0.00 0.00 46 1012.4
20260503014503 72 338 4.0 11.0 0.00 0.00 0.00 46 1012.4
20260503014217 73 334 4.0 11.0 0.00 0.00 0.00 46 1012.4
20260503013503 73 342 3.0 10.0 0.00 0.00 0.00 46 1012.1
20260503013003 74 352 3.0 7.0 0.00 0.00 0.00 46 1012.1
20260503012503 74 338 3.0 7.0 0.00 0.00 0.00 45 1012.1
20260503012003 74 329 3.0 8.0 0.00 0.00 0.00 45 1012.1
20260503011503 74 325 3.0 8.0 0.00 0.00 0.00 45 1012.1
20260503011003 74 333 3.0 11.0 0.00 0.00 0.00 45 1012.1
20260503010503 74 326 3.0 11.0 0.00 0.00 0.00 45 1012.4
20260503010003 74 308 3.0 12.0 0.00 0.00 0.00 46 1012.1
20260503005503 74 311 3.0 12.0 0.00 0.00 0.00 45 1012.1
20260503005003 74 335 3.0 14.0 0.00 0.00 0.00 46 1012.4
20260503004718 74 328 4.0 14.0 0.00 0.00 0.00 46 1012.4
20260503004003 74 322 4.0 12.0 0.00 0.00 0.00 46 1012.4
20260503003503 75 317 3.0 10.0 0.00 0.00 0.00 47 1012.4
20260503003003 75 316 4.0 9.0 0.00 0.00 0.00 47 1012.4
20260503002503 75 333 3.0 9.0 0.00 0.00 0.00 47 1012.4
20260503002003 76 332 3.0 9.0 0.00 0.00 0.00 47 1012.4
20260503001503 75 331 4.0 12.0 0.00 0.00 0.00 48 1012.1
20260503001003 74 322 5.0 15.0 0.00 0.00 0.00 49 1012.4
20260503000717 74 322 5.0 15.0 0.00 0.00 0.00 48 1012.4
20260503000003 75 347 4.0 10.0 0.00 0.00 0.00 47 1012.4
20260502235503 75 17 4.0 10.0 0.00 0.00 0.00 48 1012.4
20260502235003 75 33 3.0 10.0 0.00 0.00 0.00 48 1012.4
20260502234503 75 72 3.0 11.0 0.00 0.00 0.00 49 1012.4
20260502234003 74 60 3.0 11.0 0.00 0.00 0.00 51 1012.7
20260502233503 74 349 3.0 11.0 0.00 0.00 0.00 50 1012.7
20260502233003 74 358 3.0 11.0 0.00 0.00 0.00 49 1012.7
20260502232503 74 358 3.0 9.0 0.00 0.00 0.00 49 1013.1
20260502232003 74 332 4.0 11.0 0.00 0.00 0.00 49 1012.7
20260502231503 73 320 4.0 11.0 0.00 0.00 0.00 49 1013.1
20260502231003 73 317 4.0 14.0 0.00 0.00 0.00 50 1013.4
20260502230717 73 322 4.0 14.0 0.00 0.00 0.00 50 1013.4
20260502225503 73 308 4.0 11.0 0.00 0.00 0.00 48 1013.4
20260502225003 73 302 3.0 11.0 0.00 0.00 0.00 48 1013.4
20260502224503 74 313 4.0 11.0 0.00 0.00 0.00 46 1013.4
20260502224003 73 351 4.0 11.0 0.00 0.00 0.00 47 1013.4
20260502223503 74 52 4.0 11.0 0.00 0.00 0.00 46 1013.4
20260502223003 74 64 4.0 10.0 0.00 0.00 0.00 46 1013.4
20260502222503 74 43 3.0 10.0 0.00 0.00 0.00 46 1013.4
20260502222218 73 10 4.0 10.0 0.00 0.00 0.00 46 1013.4
20260502221503 73 340 4.0 10.0 0.00 0.00 0.00 45 1013.8
20260502221003 73 344 3.0 9.0 0.00 0.00 0.00 45 1013.8
20260502220503 73 356 4.0 11.0 0.00 0.00 0.00 45 1013.8
20260502220217 73 32 4.0 11.0 0.00 0.00 0.00 45 1013.8
20260502215503 74 78 3.0 8.0 0.00 0.00 0.00 45 1014.1
20260502215003 73 11 3.0 8.0 0.00 0.00 0.00 47 1013.8
20260502214503 72 357 3.0 10.0 0.00 0.00 0.00 47 1014.1
20260502214217 72 354 3.0 10.0 0.00 0.00 0.00 49 1014.1
20260502213503 72 342 4.0 14.0 0.00 0.00 0.00 52 1014.1
20260502213003 72 337 4.0 14.0 0.00 0.00 0.00 53 1014.1
20260502212503 71 331 5.0 14.0 0.00 0.00 0.00 55 1014.5
20260502212003 70 332 5.0 14.0 0.00 0.00 0.00 55 1014.5
20260502211503 71 338 4.0 11.0 0.00 0.00 0.00 54 1014.5
20260502211217 71 360 4.0 11.0 0.00 0.00 0.00 55 1014.5
20260502210503 70 350 4.0 11.0 0.00 0.00 0.00 57 1014.5
20260502210003 70 337 5.0 12.0 0.00 0.00 0.00 57 1014.5
20260502205503 69 30 4.0 12.0 0.00 0.00 0.00 57 1014.5
20260502205003 70 70 3.0 7.0 0.00 0.00 0.00 56 1014.5
20260502204503 71 47 3.0 9.0 0.00 0.00 0.00 57 1014.8